FW6376 Weather Reports


Display with metric or nautical units.
time (UTC)temp
F
wind
direction
speed
MPH
gust
MPH
rain 1hr
in
rain 24hr
in
rain mn
in
humidity
%
barometer
mb
20260902091541 60 261 0.0 0.0 0.00 0.19 0.00 82 1021.8
20260902090033 61 261 0.0 0.0 0.00 0.19 0.00 82 1021.7
20260902084533 61 261 0.0 0.0 0.00 0.19 0.00 82 1021.8
20260902083030 61 262 0.0 0.0 0.00 0.19 0.00 82 1021.7
20260902081531 61 262 0.0 0.0 0.00 0.19 0.00 82 1021.8
20260902080030 61 262 0.0 0.0 0.00 0.19 0.00 82 1021.6
20260902074528 61 262 0.0 0.0 0.00 0.19 0.00 82 1021.9
20260902073026 61 262 0.0 0.0 0.00 0.19 0.00 82 1021.8
20260902071528 61 261 0.0 0.0 0.00 0.19 0.00 82 1021.6
20260902070024 62 261 0.0 0.0 0.00 0.19 0.00 82 1021.8
20260902064523 62 262 0.0 0.0 0.00 0.19 0.00 82 1021.7
20260902063021 62 262 0.0 0.0 0.00 0.19 0.00 82 1021.6
20260902061539 62 261 0.0 0.0 0.00 0.19 0.00 82 1021.3
20260902060020 62 262 0.0 0.0 0.00 0.19 0.00 82 1021.5
20260902054520 62 261 0.0 0.0 0.00 0.19 0.00 82 1021.2
20260902053017 62 262 0.0 0.0 0.00 0.19 0.00 82 1021.2
20260902051515 62 261 0.0 0.0 0.00 0.19 0.00 82 1021.1
20260902050015 62 262 0.0 0.0 0.00 0.19 0.00 82 1021.0
20260902044513 62 262 0.0 0.0 0.00 0.19 0.00 82 1021.0
20260902043011 62 262 0.0 0.0 0.00 0.19 0.00 82 1020.7
20260902041509 62 262 0.0 0.0 0.01 0.19 0.00 82 1020.5
20260902040008 62 261 0.0 0.0 0.01 0.19 0.19 82 1020.5
20260902034509 62 261 0.0 0.0 0.01 0.19 0.19 81 1020.4
20260902033010 63 262 0.0 0.0 0.01 0.19 0.19 81 1020.3
20260902031506 63 262 0.0 0.0 0.00 0.18 0.18 81 1020.5
20260902030005 63 261 0.0 0.0 0.00 0.18 0.18 81 1020.5
20260902024505 63 262 0.0 0.0 0.00 0.18 0.18 81 1020.3
20260902023005 63 262 0.0 0.0 0.00 0.18 0.18 81 1020.0
20260902021508 63 262 0.0 0.0 0.00 0.18 0.18 81 1020.1
20260902020003 63 261 0.0 0.0 0.00 0.18 0.18 81 1020.1
20260902014502 63 262 0.0 0.0 0.00 0.18 0.18 80 1020.3
20260902013001 63 262 0.0 0.0 0.00 0.18 0.18 80 1020.0
20260902011601 63 262 0.0 0.0 0.00 0.18 0.18 79 1020.2
20260902010107 63 261 0.0 1.0 0.00 0.18 0.18 79 1020.1
20260902004600 64 262 0.0 0.0 0.00 0.18 0.18 78 1020.1
20260902003059 64 261 0.0 0.0 0.00 0.18 0.18 78 1020.3
20260902001559 64 261 0.0 0.0 0.00 0.18 0.18 77 1019.9
20260902000058 64 261 0.0 2.0 0.00 0.18 0.18 76 1019.6
20260901234559 64 261 0.0 0.0 0.00 0.18 0.18 75 1019.3
20260901233058 65 261 0.0 1.0 0.00 0.18 0.18 75 1019.2
20260901231558 65 261 0.0 0.0 0.00 0.18 0.18 75 1019.2
20260901230057 65 261 0.0 0.0 0.00 0.18 0.18 74 1019.2
20260901224559 66 262 0.0 2.0 0.00 0.18 0.18 74 1019.0
20260901223056 66 262 0.0 0.0 0.00 0.18 0.18 74 1019.1
20260901221555 66 262 0.0 0.0 0.00 0.18 0.18 74 1019.2
20260901220058 66 261 0.0 2.0 0.00 0.18 0.18 74 1019.3
20260901214555 67 261 0.0 0.0 0.00 0.18 0.18 74 1019.1
20260901213053 67 261 0.0 1.0 0.00 0.18 0.18 73 1018.9
20260901211553 67 261 0.0 0.0 0.00 0.18 0.18 73 1018.6
20260901210052 67 261 0.0 0.0 0.00 0.18 0.18 72 1018.7
20260901204551 68 261 0.0 4.0 0.00 0.18 0.18 71 1018.5
20260901203051 68 304 0.0 2.0 0.00 0.18 0.18 69 1018.3
20260901201551 69 281 1.0 4.0 0.00 0.18 0.18 67 1018.5
20260901200105 69 69 1.0 3.0 0.00 0.18 0.18 64 1018.3
20260901194558 70 272 2.0 5.0 0.00 0.18 0.18 67 1018.3
20260901193053 69 286 0.0 3.0 0.00 0.18 0.18 68 1018.4
20260901191545 69 280 1.0 4.0 0.00 0.18 0.18 69 1018.5
20260901190052 68 280 0.0 0.0 0.00 0.18 0.18 71 1018.6
20260901184548 68 280 0.0 3.0 0.00 0.18 0.18 67 1018.6
20260901183042 68 279 0.0 1.0 0.00 0.18 0.18 71 1018.8
20260901181544 68 279 0.0 1.0 0.00 0.18 0.18 70 1018.8
20260901180041 69 23 0.0 1.0 0.00 0.18 0.18 67 1018.6
20260901174542 68 22 0.0 2.0 0.00 0.18 0.18 68 1018.7
20260901173039 68 260 0.0 4.0 0.00 0.18 0.18 65 1018.5
20260901171550 68 14 0.0 2.0 0.00 0.18 0.18 66 1018.6
20260901170037 68 342 0.0 3.0 0.00 0.18 0.18 65 1018.4
20260901164534 67 138 1.0 5.0 0.00 0.18 0.18 68 1018.6
20260901163034 66 88 0.0 2.0 0.00 0.18 0.18 71 1018.5
20260901161526 65 72 0.0 4.0 0.00 0.18 0.18 75 1018.7
20260901160023 63 194 0.0 2.0 0.00 0.18 0.18 79 1018.8
20260901154518 62 194 0.0 2.0 0.00 0.18 0.18 80 1019.0
20260901153017 62 194 0.0 3.0 0.00 0.18 0.18 81 1019.2
20260901151521 61 182 0.0 1.0 0.00 0.18 0.18 81 1019.2
20260901150019 61 182 0.0 2.0 0.00 0.18 0.18 82 1019.2
20260901144516 60 182 0.0 0.0 0.01 0.18 0.18 82 1019.3
20260901143009 60 182 0.0 3.0 0.01 0.18 0.18 82 1019.3
20260901141506 59 182 0.0 2.0 0.01 0.18 0.18 82 1019.0
20260901140005 58 182 0.0 1.0 0.01 0.18 0.18 82 1018.9
20260901134500 58 182 0.0 2.0 0.00 0.17 0.17 82 1018.9
20260901133100 58 182 0.0 1.0 0.00 0.17 0.17 82 1019.1
20260901131557 58 182 0.0 1.0 0.01 0.17 0.17 82 1019.4
20260901130053 57 182 0.0 0.0 0.03 0.17 0.17 82 1019.2
20260901124553 57 182 0.0 0.0 0.05 0.17 0.17 82 1019.5
20260901123103 57 182 0.0 0.0 0.07 0.17 0.17 82 1019.6
20260901121602 57 182 0.0 0.0 0.08 0.16 0.16 82 1019.6
20260901120044 57 182 0.0 0.0 0.08 0.14 0.14 82 1019.4
20260901114545 57 182 0.0 0.0 0.08 0.12 0.12 82 1019.5
20260901113044 57 182 0.0 0.0 0.09 0.10 0.10 82 1019.6
20260901111542 57 182 0.0 0.0 0.08 0.08 0.08 81 1019.6
20260901110041 57 183 0.0 0.0 0.06 0.06 0.06 81 1019.4
20260901104553 57 182 0.0 0.0 0.03 0.03 0.03 81 1019.2
20260901103040 57 182 0.0 0.0 0.01 0.01 0.01 81 1019.0
20260901101538 57 182 0.0 2.0 0.00 0.00 0.00 81 1018.7
20260901100052 57 183 0.0 4.0 0.00 0.00 0.00 81 1018.6
20260901094537 57 182 0.0 1.0 0.00 0.00 0.00 81 1018.5
20260901093036 57 182 0.0 4.0 0.00 0.00 0.00 81 1018.9